Regional Weather Roundup
Issued by NWS Goodland, KS

Home | Current Version | Previous Version | Graphics & Text | Print | Product List | Glossary On
Versions: 1 2 3 4 5 6 7 8 9 10 11 12 13 14 15 16 17 18 19 20 21 22 23 24 25 26 27 28 29 30 31 32 33 34 35 36 37 38 39 40 41 42 43 44 45 46 47 48 49 50
000
ASUS43 KGLD 060408
RWRGLD

GOODLAND FORECAST AREA HOURLY WEATHER ROUNDUP
NATIONAL WEATHER SERVICE GOODLAND KS
900 PM MST MON DEC 05 2016

...OFFICIAL OBSERVATIONS...

CITY           SKY/WX    TMP DP  RH WIND       PRES   REMARKS
GOODLAND KS    MOCLDY    27  13  55 N16G26    29.90R WCI  15
HILL CITY KS   CLOUDY    35  22  58 N22G30    29.89R
IMPERIAL NEB   CLOUDY    27  14  58 N12       29.94R WCI  17
MCCOOK NEB     CLOUDY    30  15  53 N21       29.92R WCI  17
AKRON CO       CLEAR     16   7  67 N10       29.91R WCI   4
BURLINGTON CO  CLEAR     25  11  55 N16       29.90R WCI  12
LIMON CO       CLEAR     17   5  59 N13       29.88R WCI   4
$$

...UNOFFICIAL OBSERVATIONS...

CITY           SKY/WX    TMP DP  RH WIND       PRES   REMARKS
COLBY KS       CLOUDY    30  21  69 NW21G31   29.92R WCI  17
LENORA KS        N/A     32  32 100 MISG        N/A
NORTON KS      CLOUDY    34  18  51 NW16      29.89S
SHARON SPRINGS   N/A     29  15  54 N20G26      N/A  WCI  16
TRENTON NEB      N/A     28  32 100 N8          N/A
KIT CARSON CO    N/A     24  10  55 MISG        N/A
YUMA CO        FAIR      19   9  63 NW5       29.94R
$$




USA.gov is the U.S. government's official web portal to all federal, state and local government web resources and services.